Aérodrome :
LOGIN :

S'inscrire | Disclaimer

   EN    FR    IT 

 










Légende :    VFR   VFR Marginal   IFR   IFR Intensif   IFR Très Intensif
Visi : 
Plafond : 
>= 8 km
>= 3000ft
5 à 8 km
1000 à 3000 ft
1500m à 5 km
500 à 1000 ft
800 à 1500m
200 à 500 ft
< 800m
< 200 ft
Symboles :   Orages  Brouillard  Fortes neiges  Fortes précipitations  Vent > 20 kt
SIGMETs :   Divers  Orages  Givrage  Turbulence  Onde Orograph.  Cendres Volcan.






- Altitude de l'aérodrome : 796 ft
- Code IATA : SYT


LFLN - Saint-Yan

DERNIER METAR :
  • 160730Z AUTO 03012KT CAVOK 05/M02 Q1022 NOSIG

METARs EXPIRÉS :
  • 160700Z AUTO 00000KT CAVOK 03/M01 Q1022 BECMG 03010KT
  • 160630Z AUTO 12002KT CAVOK 00/M01 Q1022 BECMG 03010KT
  • 160600Z AUTO 15003KT 130V190 CAVOK M03/M04 Q1022 BECMG 03010KT
  • 160530Z AUTO VRB02KT CAVOK M03/M06 Q1022 NOSIG
  • 160500Z AUTO 32004KT CAVOK M03/M04 Q1021

TAF TAF LFLN
Valide du 16 à 06h jusqu'au 16 à 15h UTC


160500Z 1606/1615 33004KT CAVOK
BECMG 1607/1609 03010KT



MET'MAP, la Météo Aéronautique d'un coup d'oeil ! - Copyright ORBIFLY Décembre 2007 - Disclaimer

ORBIFLY MET'MAP TEAM :

Programmation & Développement : Alexandra Zaïnal
Sur une idée originale de : Baudouin d'Aumeries
Assistance à la programmation : Marc-Olivier Méhu
Soutien technique & logistique : Manuel Goepfert

Contact : metmap@orbifly.com




SOURCES & CREDITS :

   NOAA